| time (UTC) | temp C | wind direction | speed KPH | gust KPH | rain 1hr cm | rain 24hr cm | rain mn cm | humidity % | barometer mb |
| 20260506034031 | 19 | 151 | 8.0 | 11.3 | 0.00 | 0.00 | 0.00 | 46 | 1009.3 |
| 20260506033531 | 19 | 151 | 8.0 | 11.3 | 0.00 | 0.00 | 0.00 | 46 | 1009.3 |
| 20260506033042 | 18 | 163 | 8.0 | 11.3 | 0.00 | 0.00 | 0.00 | 47 | 1009.3 |
| 20260506032528 | 18 | 152 | 6.4 | 11.3 | 0.00 | 0.00 | 0.00 | 47 | 1009.3 |
| 20260506032031 | 18 | 148 | 6.4 | 11.3 | 0.00 | 0.00 | 0.00 | 47 | 1009.3 |
| 20260506031544 | 18 | 143 | 6.4 | 12.9 | 0.00 | 0.00 | 0.00 | 46 | 1009.2 |
| 20260506031030 | 19 | 146 | 6.4 | 12.9 | 0.00 | 0.00 | 0.00 | 46 | 1009.2 |
| 20260506030528 | 19 | 150 | 4.8 | 11.3 | 0.00 | 0.00 | 0.00 | 45 | 1009.2 |
| 20260506030044 | 20 | 153 | 6.4 | 14.5 | 0.00 | 0.00 | 0.00 | 44 | 1009.2 |
| 20260506025530 | 20 | 155 | 8.0 | 16.1 | 0.00 | 0.00 | 0.00 | 42 | 1009.2 |
| 20260506025033 | 20 | 160 | 9.7 | 16.1 | 0.00 | 0.00 | 0.00 | 42 | 1009.3 |
| 20260506024548 | 20 | 167 | 9.7 | 14.5 | 0.00 | 0.00 | 0.00 | 43 | 1009.3 |
| 20260506024029 | 20 | 176 | 8.0 | 14.5 | 0.00 | 0.00 | 0.00 | 42 | 1009.3 |
| 20260506023531 | 20 | 165 | 8.0 | 14.5 | 0.00 | 0.00 | 0.00 | 42 | 1009.3 |
| 20260506023054 | 20 | 174 | 8.0 | 14.5 | 0.00 | 0.00 | 0.00 | 42 | 1009.2 |
| 20260506022528 | 20 | 160 | 9.7 | 14.5 | 0.00 | 0.00 | 0.00 | 41 | 1009.2 |
| 20260506022031 | 21 | 149 | 8.0 | 14.5 | 0.00 | 0.00 | 0.00 | 41 | 1009.3 |
| 20260506021547 | 21 | 150 | 9.7 | 16.1 | 0.00 | 0.00 | 0.00 | 40 | 1009.3 |
| 20260506021029 | 21 | 184 | 8.0 | 16.1 | 0.00 | 0.00 | 0.00 | 39 | 1009.3 |
| 20260506020528 | 21 | 189 | 11.3 | 16.1 | 0.00 | 0.00 | 0.00 | 39 | 1009.2 |
| 20260506020047 | 21 | 209 | 9.7 | 16.1 | 0.00 | 0.00 | 0.00 | 40 | 1009.3 |
| 20260506015529 | 21 | 175 | 6.4 | 14.5 | 0.00 | 0.00 | 0.00 | 40 | 1009.3 |
| 20260506015034 | 21 | 160 | 8.0 | 16.1 | 0.00 | 0.00 | 0.00 | 40 | 1009.3 |
| 20260506014545 | 21 | 181 | 8.0 | 16.1 | 0.00 | 0.00 | 0.00 | 41 | 1009.2 |
| 20260506014030 | 21 | 198 | 8.0 | 16.1 | 0.00 | 0.00 | 0.00 | 41 | 1009.3 |
| 20260506013529 | 21 | 183 | 9.7 | 16.1 | 0.00 | 0.00 | 0.00 | 41 | 1009.2 |
| 20260506013043 | 21 | 179 | 11.3 | 16.1 | 0.00 | 0.00 | 0.00 | 42 | 1009.2 |
| 20260506012531 | 21 | 167 | 9.7 | 16.1 | 0.00 | 0.00 | 0.00 | 42 | 1009.0 |
| 20260506012030 | 21 | 152 | 11.3 | 16.1 | 0.00 | 0.00 | 0.00 | 43 | 1009.0 |
| 20260506011542 | 20 | 148 | 9.7 | 12.9 | 0.00 | 0.00 | 0.00 | 43 | 1009.0 |
| 20260506011030 | 21 | 155 | 8.0 | 12.9 | 0.00 | 0.00 | 0.00 | 43 | 1008.9 |
| 20260506010529 | 21 | 150 | 8.0 | 12.9 | 0.00 | 0.00 | 0.00 | 43 | 1008.7 |
| 20260506010100 | 21 | 165 | 8.0 | 12.9 | 0.00 | 0.00 | 0.00 | 42 | 1008.7 |
| 20260506005528 | 21 | 160 | 8.0 | 11.3 | 0.00 | 0.00 | 0.00 | 41 | 1008.6 |
| 20260506005028 | 22 | 162 | 6.4 | 12.9 | 0.00 | 0.00 | 0.00 | 40 | 1008.6 |
| 20260506004548 | 22 | 144 | 8.0 | 14.5 | 0.00 | 0.00 | 0.00 | 39 | 1008.6 |
| 20260506004028 | 22 | 200 | 8.0 | 14.5 | 0.00 | 0.00 | 0.00 | 38 | 1008.6 |
| 20260506003529 | 22 | 208 | 9.7 | 14.5 | 0.00 | 0.00 | 0.00 | 38 | 1008.5 |
| 20260506003045 | 22 | 205 | 8.0 | 14.5 | 0.00 | 0.00 | 0.00 | 38 | 1008.5 |
| 20260506002528 | 22 | 193 | 6.4 | 14.5 | 0.00 | 0.00 | 0.00 | 38 | 1008.5 |
| 20260506002030 | 22 | 161 | 8.0 | 16.1 | 0.00 | 0.00 | 0.00 | 37 | 1008.4 |
| 20260506001547 | 23 | 211 | 8.0 | 24.1 | 0.00 | 0.00 | 0.00 | 37 | 1008.3 |
| 20260506001029 | 23 | 159 | 11.3 | 24.1 | 0.00 | 0.00 | 0.00 | 37 | 1008.1 |
| 20260506000531 | 23 | 143 | 11.3 | 24.1 | 0.00 | 0.00 | 0.00 | 37 | 1008.1 |
| 20260506000042 | 23 | 213 | 12.9 | 22.5 | 0.00 | 0.00 | 0.00 | 37 | 1008.1 |
| 20260505235528 | 23 | 165 | 14.5 | 22.5 | 0.00 | 0.00 | 0.00 | 37 | 1007.9 |
| 20260505235029 | 23 | 159 | 9.7 | 22.5 | 0.00 | 0.00 | 0.00 | 38 | 1008.0 |
| 20260505234601 | 23 | 164 | 11.3 | 19.3 | 0.00 | 0.00 | 0.00 | 38 | 1007.9 |
| 20260505234035 | 23 | 186 | 12.9 | 19.3 | 0.00 | 0.00 | 0.00 | 38 | 1007.9 |
| 20260505233531 | 23 | 198 | 12.9 | 25.7 | 0.00 | 0.00 | 0.00 | 38 | 1007.8 |
| 20260505233050 | 23 | 184 | 11.3 | 25.7 | 0.00 | 0.00 | 0.00 | 38 | 1007.8 |
| 20260505232528 | 23 | 184 | 14.5 | 25.7 | 0.00 | 0.00 | 0.00 | 38 | 1007.9 |
| 20260505232029 | 24 | 189 | 11.3 | 24.1 | 0.00 | 0.00 | 0.00 | 38 | 1007.8 |
| 20260505231545 | 24 | 167 | 14.5 | 27.4 | 0.00 | 0.00 | 0.00 | 38 | 1007.8 |
| 20260505231030 | 24 | 176 | 14.5 | 27.4 | 0.00 | 0.00 | 0.00 | 38 | 1007.7 |
| 20260505230530 | 24 | 172 | 17.7 | 27.4 | 0.00 | 0.00 | 0.00 | 38 | 1007.7 |
| 20260505230043 | 24 | 167 | 16.1 | 24.1 | 0.00 | 0.00 | 0.00 | 39 | 1007.7 |
| 20260505225528 | 24 | 189 | 16.1 | 24.1 | 0.00 | 0.00 | 0.00 | 39 | 1007.7 |
| 20260505225030 | 24 | 174 | 14.5 | 30.6 | 0.00 | 0.00 | 0.00 | 38 | 1007.7 |
| 20260505224542 | 24 | 172 | 16.1 | 30.6 | 0.00 | 0.00 | 0.00 | 39 | 1007.7 |
| 20260505224033 | 24 | 185 | 12.9 | 22.5 | 0.00 | 0.00 | 0.00 | 39 | 1007.7 |
| 20260505223530 | 25 | 182 | 12.9 | 22.5 | 0.00 | 0.00 | 0.00 | 39 | 1007.7 |
| 20260505223047 | 25 | 173 | 16.1 | 25.7 | 0.00 | 0.00 | 0.00 | 38 | 1007.7 |
| 20260505222535 | 25 | 200 | 14.5 | 25.7 | 0.00 | 0.00 | 0.00 | 38 | 1007.7 |
| 20260505222032 | 25 | 184 | 16.1 | 27.4 | 0.00 | 0.00 | 0.00 | 37 | 1007.8 |
| 20260505221545 | 25 | 155 | 17.7 | 30.6 | 0.00 | 0.00 | 0.00 | 35 | 1007.7 |
| 20260505221031 | 25 | 186 | 16.1 | 37.0 | 0.00 | 0.00 | 0.00 | 31 | 1007.7 |
| 20260505220530 | 25 | 164 | 16.1 | 38.6 | 0.00 | 0.00 | 0.00 | 31 | 1007.6 |
| 20260505220045 | 25 | 155 | 17.7 | 38.6 | 0.00 | 0.00 | 0.00 | 31 | 1007.7 |
| 20260505215530 | 25 | 188 | 19.3 | 37.0 | 0.00 | 0.00 | 0.00 | 30 | 1007.7 |
| 20260505215030 | 25 | 215 | 16.1 | 37.0 | 0.00 | 0.00 | 0.00 | 30 | 1007.7 |
| 20260505214601 | 26 | 184 | 22.5 | 35.4 | 0.00 | 0.00 | 0.00 | 30 | 1007.7 |
| 20260505214028 | 26 | 202 | 20.9 | 35.4 | 0.00 | 0.00 | 0.00 | 30 | 1007.6 |
| 20260505213530 | 26 | 207 | 20.9 | 38.6 | 0.00 | 0.00 | 0.00 | 30 | 1007.6 |
| 20260505213046 | 26 | 181 | 19.3 | 38.6 | 0.00 | 0.00 | 0.00 | 30 | 1007.7 |
| 20260505212531 | 26 | 202 | 19.3 | 41.8 | 0.00 | 0.00 | 0.00 | 30 | 1007.6 |
| 20260505212029 | 27 | 193 | 19.3 | 46.7 | 0.00 | 0.00 | 0.00 | 31 | 1007.5 |
| 20260505211546 | 26 | 187 | 29.0 | 46.7 | 0.00 | 0.00 | 0.00 | 29 | 1007.5 |
| 20260505211033 | 26 | 215 | 22.5 | 41.8 | 0.00 | 0.00 | 0.00 | 31 | 1007.5 |
| 20260505210527 | 26 | 205 | 25.7 | 41.8 | 0.00 | 0.00 | 0.00 | 30 | 1007.6 |
| 20260505210049 | 26 | 176 | 16.1 | 41.8 | 0.00 | 0.00 | 0.00 | 33 | 1007.4 |
| 20260505205531 | 27 | 204 | 20.9 | 41.8 | 0.00 | 0.00 | 0.00 | 33 | 1007.6 |
| 20260505205030 | 27 | 179 | 22.5 | 40.2 | 0.00 | 0.00 | 0.00 | 32 | 1007.5 |
| 20260505204554 | 27 | 179 | 27.4 | 40.2 | 0.00 | 0.00 | 0.00 | 31 | 1007.3 |
| 20260505204027 | 27 | 202 | 14.5 | 35.4 | 0.00 | 0.00 | 0.00 | 33 | 1007.7 |
| 20260505203530 | 26 | 186 | 25.7 | 35.4 | 0.00 | 0.00 | 0.00 | 35 | 1007.6 |
| 20260505203049 | 26 | 200 | 19.3 | 33.8 | 0.00 | 0.00 | 0.00 | 34 | 1007.6 |
| 20260505202530 | 26 | 174 | 19.3 | 35.4 | 0.00 | 0.00 | 0.00 | 34 | 1007.6 |
| 20260505202027 | 26 | 216 | 22.5 | 35.4 | 0.00 | 0.00 | 0.00 | 33 | 1007.6 |
| 20260505201550 | 26 | 154 | 19.3 | 33.8 | 0.00 | 0.00 | 0.00 | 34 | 1007.7 |
| 20260505201028 | 26 | 229 | 19.3 | 30.6 | 0.00 | 0.00 | 0.00 | 34 | 1007.7 |
| 20260505200531 | 26 | 227 | 16.1 | 30.6 | 0.00 | 0.00 | 0.00 | 35 | 1007.7 |
| 20260505200058 | 26 | 215 | 19.3 | 30.6 | 0.00 | 0.00 | 0.00 | 37 | 1007.8 |
| 20260505195530 | 27 | 215 | 19.3 | 30.6 | 0.00 | 0.00 | 0.00 | 35 | 1007.7 |
| 20260505195029 | 27 | 150 | 17.7 | 35.4 | 0.00 | 0.00 | 0.00 | 35 | 1007.9 |
| 20260505194547 | 26 | 205 | 17.7 | 35.4 | 0.00 | 0.00 | 0.00 | 35 | 1007.7 |
| 20260505194031 | 26 | 223 | 19.3 | 35.4 | 0.00 | 0.00 | 0.00 | 37 | 1007.9 |
| 20260505193530 | 26 | 225 | 16.1 | 32.2 | 0.00 | 0.00 | 0.00 | 37 | 1008.0 |
| 20260505193048 | 26 | 185 | 17.7 | 33.8 | 0.00 | 0.00 | 0.00 | 40 | 1008.0 |
| 20260505192533 | 26 | 197 | 20.9 | 40.2 | 0.00 | 0.00 | 0.00 | 36 | 1008.2 |
| 20260505192030 | 26 | 141 | 20.9 | 40.2 | 0.00 | 0.00 | 0.00 | 37 | 1008.2 |
| 20260505191540 | 26 | 187 | 19.3 | 33.8 | 0.00 | 0.00 | 0.00 | 39 | 1008.2 |
| 20260505191030 | 26 | 163 | 14.5 | 30.6 | 0.00 | 0.00 | 0.00 | 40 | 1008.3 |
| 20260505190528 | 26 | 208 | 17.7 | 29.0 | 0.00 | 0.00 | 0.00 | 38 | 1008.3 |
| 20260505190039 | 26 | 178 | 12.9 | 33.8 | 0.00 | 0.00 | 0.00 | 38 | 1008.3 |
| 20260505185528 | 26 | 243 | 17.7 | 35.4 | 0.00 | 0.00 | 0.00 | 36 | 1008.4 |
| 20260505185030 | 26 | 196 | 17.7 | 35.4 | 0.00 | 0.00 | 0.00 | 37 | 1008.5 |
| 20260505184545 | 26 | 228 | 19.3 | 35.4 | 0.00 | 0.00 | 0.00 | 38 | 1008.5 |
| 20260505184031 | 26 | 176 | 14.5 | 29.0 | 0.00 | 0.00 | 0.00 | 40 | 1008.6 |
| 20260505183531 | 26 | 239 | 19.3 | 33.8 | 0.00 | 0.00 | 0.00 | 38 | 1008.7 |
| 20260505183044 | 26 | 240 | 17.7 | 33.8 | 0.00 | 0.00 | 0.00 | 38 | 1008.8 |
| 20260505182527 | 26 | 213 | 19.3 | 29.0 | 0.00 | 0.00 | 0.00 | 38 | 1008.8 |
| 20260505182028 | 26 | 220 | 17.7 | 29.0 | 0.00 | 0.00 | 0.00 | 38 | 1008.9 |
| 20260505181543 | 26 | 180 | 12.9 | 25.7 | 0.00 | 0.00 | 0.00 | 40 | 1008.9 |
| 20260505181029 | 26 | 216 | 16.1 | 24.1 | 0.00 | 0.00 | 0.00 | 39 | 1009.0 |
| 20260505180529 | 26 | 158 | 12.9 | 29.0 | 0.00 | 0.00 | 0.00 | 39 | 1008.9 |
| 20260505175530 | 25 | 235 | 19.3 | 29.0 | 0.00 | 0.00 | 0.00 | 38 | 1009.1 |
| 20260505175034 | 25 | 212 | 14.5 | 24.1 | 0.00 | 0.00 | 0.00 | 37 | 1009.2 |
| 20260505174559 | 25 | 218 | 9.7 | 24.1 | 0.00 | 0.00 | 0.00 | 39 | 1009.1 |
| 20260505174030 | 25 | 255 | 11.3 | 24.1 | 0.00 | 0.00 | 0.00 | 38 | 1009.0 |
| 20260505173531 | 25 | 203 | 9.7 | 22.5 | 0.00 | 0.00 | 0.00 | 40 | 1009.2 |
| 20260505173047 | 25 | 272 | 14.5 | 27.4 | 0.00 | 0.00 | 0.00 | 41 | 1009.3 |
| 20260505172527 | 25 | 209 | 16.1 | 35.4 | 0.00 | 0.00 | 0.00 | 39 | 1009.3 |
| 20260505172028 | 25 | 160 | 17.7 | 35.4 | 0.00 | 0.00 | 0.00 | 38 | 1009.3 |
| 20260505171543 | 25 | 195 | 14.5 | 30.6 | 0.00 | 0.00 | 0.00 | 39 | 1009.1 |
| 20260505171031 | 25 | 233 | 17.7 | 30.6 | 0.00 | 0.00 | 0.00 | 38 | 1009.3 |
| 20260505170530 | 25 | 238 | 12.9 | 33.8 | 0.00 | 0.00 | 0.00 | 40 | 1009.5 |
| 20260505170049 | 25 | 198 | 16.1 | 33.8 | 0.00 | 0.00 | 0.00 | 38 | 1009.6 |
| 20260505165529 | 25 | 217 | 16.1 | 33.8 | 0.00 | 0.00 | 0.00 | 39 | 1009.7 |
| 20260505165029 | 25 | 236 | 16.1 | 27.4 | 0.00 | 0.00 | 0.00 | 39 | 1009.8 |
| 20260505164549 | 25 | 212 | 9.7 | 33.8 | 0.00 | 0.00 | 0.00 | 42 | 1009.9 |
| 20260505164030 | 25 | 145 | 16.1 | 33.8 | 0.00 | 0.00 | 0.00 | 38 | 1010.1 |
| 20260505163531 | 25 | 221 | 14.5 | 29.0 | 0.00 | 0.00 | 0.00 | 38 | 1009.9 |
| 20260505163047 | 25 | 257 | 17.7 | 29.0 | 0.00 | 0.00 | 0.00 | 40 | 1010.1 |
| 20260505162530 | 25 | 190 | 14.5 | 30.6 | 0.00 | 0.00 | 0.00 | 40 | 1010.2 |
| 20260505162029 | 25 | 212 | 16.1 | 30.6 | 0.00 | 0.00 | 0.00 | 40 | 1010.3 |
| 20260505161543 | 25 | 190 | 14.5 | 27.4 | 0.00 | 0.00 | 0.00 | 41 | 1010.3 |
| 20260505161028 | 25 | 214 | 12.9 | 30.6 | 0.00 | 0.00 | 0.00 | 42 | 1010.4 |
| 20260505160530 | 25 | 203 | 12.9 | 30.6 | 0.00 | 0.00 | 0.00 | 45 | 1010.6 |
| 20260505153044 | 24 | 252 | 14.5 | 30.6 | 0.00 | 0.00 | 0.00 | 45 | 1010.7 |
| 20260505152535 | 24 | 206 | 9.7 | 20.9 | 0.00 | 0.00 | 0.00 | 47 | 1010.6 |
| 20260505152029 | 23 | 262 | 11.3 | 20.9 | 0.00 | 0.00 | 0.00 | 47 | 1010.7 |
| 20260505151544 | 23 | 217 | 11.3 | 25.7 | 0.00 | 0.00 | 0.00 | 48 | 1010.7 |
| 20260505151033 | 23 | 245 | 11.3 | 25.7 | 0.00 | 0.00 | 0.00 | 48 | 1010.7 |
| 20260505150534 | 23 | 154 | 11.3 | 24.1 | 0.00 | 0.00 | 0.00 | 48 | 1010.6 |
| 20260505140529 | 22 | 251 | 12.9 | 27.4 | 0.00 | 0.00 | 0.00 | 49 | 1010.8 |
| 20260505125031 | 18 | 161 | 14.5 | 22.5 | 0.00 | 0.00 | 0.00 | 60 | 1011.2 |
| 20260505124546 | 18 | 165 | 12.9 | 22.5 | 0.00 | 0.00 | 0.00 | 62 | 1011.2 |
| 20260505124029 | 18 | 184 | 12.9 | 22.5 | 0.00 | 0.00 | 0.00 | 61 | 1011.3 |
| 20260505123530 | 18 | 165 | 12.9 | 20.9 | 0.00 | 0.00 | 0.00 | 63 | 1011.3 |
| 20260505123101 | 17 | 179 | 11.3 | 20.9 | 0.00 | 0.00 | 0.00 | 64 | 1011.4 |
| 20260505122536 | 17 | 154 | 12.9 | 20.9 | 0.00 | 0.00 | 0.00 | 65 | 1011.4 |
| 20260505122035 | 17 | 202 | 12.9 | 20.9 | 0.00 | 0.00 | 0.00 | 65 | 1011.4 |
| 20260505121540 | 17 | 160 | 11.3 | 19.3 | 0.00 | 0.00 | 0.00 | 66 | 1011.5 |
| 20260505121029 | 17 | 177 | 11.3 | 22.5 | 0.00 | 0.00 | 0.00 | 66 | 1011.6 |
| 20260505120530 | 16 | 214 | 12.9 | 22.5 | 0.00 | 0.00 | 0.00 | 66 | 1011.5 |
| 20260505120046 | 16 | 185 | 12.9 | 22.5 | 0.00 | 0.00 | 0.00 | 66 | 1011.5 |
| 20260505115531 | 16 | 157 | 11.3 | 17.7 | 0.00 | 0.00 | 0.00 | 68 | 1011.4 |
| 20260505115035 | 16 | 164 | 11.3 | 19.3 | 0.00 | 0.00 | 0.00 | 68 | 1011.4 |
| 20260505114544 | 16 | 167 | 12.9 | 19.3 | 0.00 | 0.00 | 0.00 | 67 | 1011.4 |
| 20260505114032 | 16 | 160 | 11.3 | 14.5 | 0.00 | 0.00 | 0.00 | 68 | 1011.4 |
| 20260505113530 | 16 | 159 | 8.0 | 12.9 | 0.00 | 0.00 | 0.00 | 70 | 1011.3 |
| 20260505113041 | 15 | 159 | 8.0 | 12.9 | 0.00 | 0.00 | 0.00 | 71 | 1011.3 |
| 20260505112534 | 15 | 175 | 8.0 | 12.9 | 0.00 | 0.00 | 0.00 | 72 | 1011.1 |
| 20260505112032 | 15 | 162 | 8.0 | 12.9 | 0.00 | 0.00 | 0.00 | 72 | 1011.2 |
| 20260505111547 | 15 | 153 | 6.4 | 9.7 | 0.00 | 0.00 | 0.00 | 74 | 1011.1 |
| 20260505111032 | 14 | 150 | 6.4 | 9.7 | 0.00 | 0.00 | 0.00 | 73 | 1011.0 |
| 20260505110530 | 14 | 153 | 6.4 | 9.7 | 0.00 | 0.00 | 0.00 | 74 | 1011.1 |
| 20260505102032 | 13 | 149 | 8.0 | 9.7 | 0.00 | 0.00 | 0.00 | 76 | 1010.5 |
| 20260505101545 | 13 | 146 | 8.0 | 11.3 | 0.00 | 0.00 | 0.00 | 75 | 1010.7 |
| 20260505101029 | 14 | 143 | 8.0 | 11.3 | 0.00 | 0.00 | 0.00 | 74 | 1010.6 |
| 20260505100529 | 14 | 150 | 8.0 | 11.3 | 0.00 | 0.00 | 0.00 | 74 | 1010.6 |
| 20260505100050 | 14 | 169 | 3.2 | 8.0 | 0.00 | 0.00 | 0.00 | 74 | 1010.7 |
| 20260505095532 | 13 | 179 | 3.2 | 12.9 | 0.00 | 0.00 | 0.00 | 74 | 1010.6 |
| 20260505095033 | 13 | 158 | 4.8 | 12.9 | 0.00 | 0.00 | 0.00 | 75 | 1010.6 |
| 20260505094545 | 13 | 155 | 6.4 | 11.3 | 0.00 | 0.00 | 0.00 | 76 | 1010.3 |
| 20260505094031 | 13 | 141 | 6.4 | 11.3 | 0.00 | 0.00 | 0.00 | 75 | 1010.4 |
| 20260505093529 | 13 | 153 | 8.0 | 11.3 | 0.00 | 0.00 | 0.00 | 75 | 1010.3 |
| 20260505093043 | 13 | 149 | 8.0 | 11.3 | 0.00 | 0.00 | 0.00 | 75 | 1010.2 |
| 20260505092531 | 13 | 146 | 6.4 | 9.7 | 0.00 | 0.00 | 0.00 | 74 | 1010.3 |
| 20260505092028 | 14 | 143 | 6.4 | 12.9 | 0.00 | 0.00 | 0.00 | 74 | 1010.2 |
| 20260505091601 | 14 | 153 | 6.4 | 12.9 | 0.00 | 0.00 | 0.00 | 73 | 1010.2 |
| 20260505091029 | 14 | 161 | 8.0 | 12.9 | 0.00 | 0.00 | 0.00 | 72 | 1010.3 |
| 20260505090530 | 14 | 158 | 6.4 | 12.9 | 0.00 | 0.00 | 0.00 | 72 | 1010.2 |
| 20260505090047 | 15 | 160 | 8.0 | 12.9 | 0.00 | 0.00 | 0.00 | 72 | 1010.2 |
| 20260505085532 | 15 | 143 | 8.0 | 12.9 | 0.00 | 0.00 | 0.00 | 71 | 1010.2 |
| 20260505085030 | 15 | 163 | 8.0 | 12.9 | 0.00 | 0.00 | 0.00 | 71 | 1010.2 |
| 20260505084543 | 15 | 174 | 8.0 | 12.9 | 0.00 | 0.00 | 0.00 | 71 | 1010.2 |
| 20260505084029 | 15 | 163 | 6.4 | 11.3 | 0.00 | 0.00 | 0.00 | 71 | 1010.2 |
| 20260505083529 | 15 | 167 | 8.0 | 11.3 | 0.00 | 0.00 | 0.00 | 71 | 1010.2 |
| 20260505083041 | 15 | 153 | 8.0 | 11.3 | 0.00 | 0.00 | 0.00 | 71 | 1010.1 |
| 20260505082529 | 15 | 162 | 6.4 | 12.9 | 0.00 | 0.00 | 0.00 | 71 | 1010.1 |
| 20260505082029 | 15 | 194 | 8.0 | 16.1 | 0.00 | 0.00 | 0.00 | 71 | 1010.1 |
| 20260505081554 | 15 | 155 | 8.0 | 17.7 | 0.00 | 0.00 | 0.00 | 71 | 1010.1 |
| 20260505081029 | 15 | 158 | 6.4 | 17.7 | 0.00 | 0.00 | 0.00 | 71 | 1010.1 |
| 20260505080529 | 15 | 167 | 8.0 | 14.5 | 0.00 | 0.00 | 0.00 | 71 | 1010.0 |
| 20260505080056 | 15 | 194 | 9.7 | 16.1 | 0.00 | 0.00 | 0.00 | 71 | 1010.0 |
| 20260505075529 | 15 | 161 | 8.0 | 16.1 | 0.00 | 0.00 | 0.00 | 71 | 1010.0 |
| 20260505075029 | 15 | 152 | 9.7 | 16.1 | 0.00 | 0.00 | 0.00 | 71 | 1009.8 |
| 20260505074541 | 15 | 170 | 9.7 | 14.5 | 0.00 | 0.00 | 0.00 | 71 | 1009.9 |
| 20260505074028 | 14 | 179 | 11.3 | 14.5 | 0.00 | 0.00 | 0.00 | 72 | 1009.9 |
| 20260505073529 | 14 | 166 | 6.4 | 12.9 | 0.00 | 0.00 | 0.00 | 74 | 1009.8 |
| 20260505073046 | 13 | 156 | 6.4 | 11.3 | 0.00 | 0.00 | 0.00 | 74 | 1009.7 |
| 20260505072533 | 13 | 146 | 4.8 | 9.7 | 0.00 | 0.00 | 0.00 | 74 | 1009.8 |
| 20260505072030 | 13 | 134 | 6.4 | 9.7 | 0.00 | 0.00 | 0.00 | 75 | 1009.9 |
| 20260505071551 | 13 | 140 | 6.4 | 9.7 | 0.00 | 0.00 | 0.00 | 74 | 1009.7 |
| 20260505071029 | 13 | 141 | 6.4 | 9.7 | 0.00 | 0.00 | 0.00 | 74 | 1009.8 |
| 20260505070532 | 14 | 129 | 6.4 | 9.7 | 0.00 | 0.00 | 0.00 | 74 | 1009.8 |
| 20260505070050 | 14 | 129 | 6.4 | 9.7 | 0.00 | 0.00 | 0.00 | 74 | 1009.6 |
| 20260505065529 | 14 | 130 | 6.4 | 9.7 | 0.00 | 0.00 | 0.00 | 75 | 1009.7 |
| 20260505065029 | 14 | 142 | 4.8 | 9.7 | 0.00 | 0.00 | 0.00 | 75 | 1009.8 |
| 20260505064546 | 14 | 131 | 6.4 | 9.7 | 0.00 | 0.00 | 0.00 | 75 | 1009.8 |
| 20260505064029 | 14 | 141 | 4.8 | 8.0 | 0.00 | 0.00 | 0.00 | 74 | 1009.9 |
| 20260505063529 | 14 | 134 | 4.8 | 9.7 | 0.00 | 0.00 | 0.00 | 74 | 1009.9 |
| 20260505063103 | 14 | 134 | 6.4 | 9.7 | 0.00 | 0.00 | 0.00 | 74 | 1009.8 |
| 20260505062531 | 14 | 133 | 4.8 | 8.0 | 0.00 | 0.00 | 0.00 | 74 | 1010.0 |
| 20260505062029 | 14 | 125 | 4.8 | 8.0 | 0.00 | 0.00 | 0.00 | 73 | 1010.0 |
| 20260505061606 | 15 | 127 | 4.8 | 8.0 | 0.00 | 0.00 | 0.00 | 73 | 1010.0 |
| 20260505061031 | 14 | 124 | 4.8 | 8.0 | 0.00 | 0.00 | 0.00 | 73 | 1010.0 |
| 20260505060533 | 14 | 127 | 4.8 | 8.0 | 0.00 | 0.00 | 0.00 | 74 | 1010.1 |
| 20260505060057 | 14 | 134 | 6.4 | 8.0 | 0.00 | 0.00 | 0.00 | 74 | 1010.1 |
| 20260505055530 | 15 | 138 | 6.4 | 9.7 | 0.00 | 0.00 | 0.00 | 73 | 1010.1 |
| 20260505055030 | 15 | 134 | 6.4 | 9.7 | 0.00 | 0.00 | 0.00 | 73 | 1010.1 |
| 20260505054547 | 15 | 141 | 6.4 | 9.7 | 0.00 | 0.00 | 0.00 | 73 | 1010.1 |
| 20260505054032 | 15 | 141 | 8.0 | 9.7 | 0.00 | 0.00 | 0.00 | 72 | 1010.2 |
| 20260505053529 | 15 | 134 | 6.4 | 9.7 | 0.00 | 0.00 | 0.00 | 71 | 1010.1 |
| 20260505053046 | 15 | 130 | 4.8 | 12.9 | 0.00 | 0.00 | 0.00 | 70 | 1010.0 |
| 20260505052533 | 15 | 146 | 6.4 | 14.5 | 0.00 | 0.00 | 0.00 | 69 | 1010.1 |
| 20260505052032 | 16 | 168 | 8.0 | 14.5 | 0.00 | 0.00 | 0.00 | 69 | 1010.3 |
| 20260505051607 | 16 | 154 | 8.0 | 19.3 | 0.00 | 0.00 | 0.00 | 69 | 1010.1 |
| 20260505051033 | 16 | 162 | 8.0 | 20.9 | 0.00 | 0.00 | 0.00 | 69 | 1010.1 |
| 20260505050532 | 16 | 146 | 12.9 | 20.9 | 0.00 | 0.00 | 0.00 | 69 | 1010.1 |
| 20260505041548 | 16 | 163 | 8.0 | 14.5 | 0.00 | 0.00 | 0.00 | 66 | 1009.8 |
| 20260505041031 | 16 | 164 | 9.7 | 14.5 | 0.00 | 0.00 | 0.00 | 66 | 1009.8 |
| 20260505040536 | 16 | 159 | 8.0 | 12.9 | 0.00 | 0.00 | 0.00 | 66 | 1009.9 |
| 20260505040042 | 16 | 148 | 8.0 | 14.5 | 0.00 | 0.00 | 0.00 | 65 | 1009.8 |
| 20260505035530 | 17 | 139 | 8.0 | 14.5 | 0.00 | 0.00 | 0.00 | 64 | 1009.8 |
| 20260505035034 | 17 | 155 | 8.0 | 14.5 | 0.00 | 0.00 | 0.00 | 63 | 1009.8 |
| 20260505034544 | 17 | 183 | 8.0 | 12.9 | 0.00 | 0.00 | 0.00 | 63 | 1009.7 |